Angel Fire, NM

10:30 AM MST on November 22, 2019 (GMT -0700)
Angel Fire

Weather History for KAXX - June, 2019

Change the Weather History Date:

Saturday, June 8, 2019

  Actual Average (KSKX) Record (KSKX)
Temperature  
Mean Temperature 52 °F -  
Max Temperature 71 °F 76 °F 89 °F (2018)
Min Temperature 33 °F 40 °F 28 °F (2007)
Degree Days  
Heating Degree Days 13    
Growing Degree Days 2 (Base 50)    
Moisture  
Dew Point 31 °F    
Average Humidity 50    
Maximum Humidity 94    
Minimum Humidity 15    
Precipitation  
Precipitation 0.00 in - - ()
Sea Level Pressure  
Sea Level Pressure 30.24 in    
Wind  
Wind Speed 5 mph (West)    
Max Wind Speed 26 mph    
Max Gust Speed 32 mph    
Visibility 10 miles    
Events      
Averages and records for this station are not official NWS values.
T = Trace of Precipitation, MM = Missing Value Source: NWS Daily Summary

Daily Weather History Graph

Daily Weather History Graph

Search for Another Location

Airport or City:

Astronomy

Jun. 08, 2019 Rise Set
Actual Time 5:42 AM MDT 8:17 PM MDT
Civil Twilight 5:12 AM MDT 8:47 PM MDT
Nautical Twilight 4:35 AM MDT 9:25 PM MDT
Astronomical Twilight 3:53 AM MDT 10:07 PM MDT
Moon 11:09 AM MDT (6/8) 12:24 AM MDT (6/8)
Length of Visible Light 15h 35m
Length of Day
14h 34m
Waxing Crescent, 33% of the Moon is Illuminated
Jun 8
Waxing Crescent
Jun 10
First Quarter
Jun 17
Full
Jun 25
Last Quarter
Jul 2
New

Hourly Weather History & Observations

Time (MDT) Temp. Windchill Dew Point Humidity Pressure Visibility Wind Dir Wind Speed Gust Speed Precip Events Conditions
12:10 AM 46.6 °F - 42.4 °F 85% 30.20 in 10.0 mi Calm Calm - N/A   Unknown
12:35 AM 43.3 °F - 39.9 °F 88% 30.20 in 10.0 mi Calm Calm - N/A   Unknown
12:55 AM 40.8 °F - 36.9 °F 86% 30.20 in 10.0 mi Calm Calm - N/A   Unknown
1:15 AM 42.1 °F - 37.2 °F 83% 30.20 in 10.0 mi Calm Calm - N/A   Unknown
1:35 AM 39.6 °F - 35.8 °F 86% 30.20 in 10.0 mi Calm Calm - N/A   Unknown
1:55 AM 40.1 °F 38.0 °F 36.0 °F 85% 30.20 in 10.0 mi South 3.5 mph - N/A   Unknown
2:15 AM 39.6 °F 35.4 °F 36.5 °F 89% 30.21 in 10.0 mi SSE 5.8 mph - N/A   Unknown
2:35 AM 39.6 °F - 36.1 °F 88% 30.22 in 10.0 mi Calm Calm - N/A   Unknown
2:55 AM 37.9 °F - 34.7 °F 88% 30.22 in 10.0 mi Calm Calm - N/A   Unknown
3:15 AM 37.4 °F - 33.8 °F 87% 30.22 in 10.0 mi Calm Calm - N/A   Unknown
3:35 AM 36.0 °F - 33.4 °F 91% 30.22 in 10.0 mi Calm Calm - N/A   Unknown
3:55 AM 37.0 °F - 33.6 °F 87% 30.22 in 10.0 mi Calm Calm - N/A   Unknown
4:15 AM 34.5 °F - 32.0 °F 90% 30.22 in 10.0 mi Calm Calm - N/A   Unknown
4:35 AM 34.5 °F - 32.4 °F 92% 30.22 in 10.0 mi Calm Calm - N/A   Unknown
4:55 AM 34.9 °F - 32.4 °F 91% 30.22 in 10.0 mi Calm Calm - N/A   Unknown
5:15 AM 33.6 °F - 31.5 °F 92% 30.23 in 10.0 mi Calm Calm - N/A   Unknown
5:35 AM 33.8 °F - 32.2 °F 94% 30.23 in 10.0 mi Calm Calm - N/A   Unknown
5:55 AM 33.4 °F - 32.0 °F 94% 30.24 in 10.0 mi Calm Calm - N/A   Unknown
6:15 AM 35.1 °F - 31.6 °F 87% 30.24 in 10.0 mi Calm Calm - N/A   Unknown
6:35 AM 36.5 °F - 32.2 °F 84% 30.24 in 10.0 mi Calm Calm - N/A   Unknown
6:55 AM 39.9 °F - 36.1 °F 86% 30.24 in 10.0 mi Calm Calm - N/A   Unknown
7:15 AM 44.2 °F - 36.5 °F 74% 30.25 in 10.0 mi Calm Calm - N/A   Unknown
7:35 AM 48.6 °F - 40.3 °F 73% 30.25 in 10.0 mi Calm Calm - N/A   Unknown
7:55 AM 55.6 °F - 36.1 °F 48% 30.25 in 10.0 mi Calm Calm - N/A   Unknown
8:15 AM 58.1 °F - 33.1 °F 39% 30.25 in 10.0 mi West 10.4 mph 20.7 mph N/A   Unknown
8:35 AM 58.1 °F - 32.2 °F 38% 30.25 in 10.0 mi West 10.4 mph 20.7 mph N/A   Unknown
8:55 AM 59.4 °F - 33.3 °F 37% 30.25 in 10.0 mi WNW 11.5 mph 18.4 mph N/A   Unknown
9:15 AM 59.2 °F - 31.3 °F 35% 30.25 in 10.0 mi West 11.5 mph 19.6 mph N/A   Unknown
9:35 AM 59.7 °F - 31.8 °F 35% 30.24 in 10.0 mi WNW 13.8 mph 18.4 mph N/A   Unknown
9:55 AM 60.1 °F - 32.2 °F 35% 30.25 in 10.0 mi West 8.1 mph 19.6 mph N/A   Unknown
10:15 AM 60.6 °F - 31.6 °F 34% 30.24 in 10.0 mi West 12.7 mph 18.4 mph N/A   Unknown
10:35 AM 61.0 °F - 33.6 °F 36% 30.24 in 10.0 mi West 9.2 mph 26.5 mph N/A   Unknown
10:55 AM 61.9 °F - 32.5 °F 33% 30.24 in 10.0 mi WNW 11.5 mph 20.7 mph N/A   Unknown
11:15 AM 62.6 °F - 32.5 °F 32% 30.24 in 10.0 mi West 11.5 mph 18.4 mph N/A   Unknown
11:35 AM 63.5 °F - 33.8 °F 33% 30.24 in 10.0 mi West 9.2 mph - N/A   Unknown
11:55 AM 65.1 °F - 34.5 °F 32% 30.24 in 10.0 mi West 15.0 mph 18.4 mph N/A   Unknown
12:15 PM 66.0 °F - 33.3 °F 30% 30.23 in 10.0 mi WSW 15.0 mph 26.5 mph N/A   Unknown
12:35 PM 66.7 °F - 31.1 °F 26% 30.23 in 10.0 mi West 12.7 mph 24.2 mph N/A   Unknown
12:55 PM 67.3 °F - 28.0 °F 23% 30.23 in 10.0 mi WSW 17.3 mph 24.2 mph N/A   Unknown
1:15 PM 68.2 °F - 30.4 °F 24% 30.23 in 10.0 mi WSW 15.0 mph 26.5 mph N/A   Unknown
1:35 PM 68.2 °F - 27.7 °F 22% 30.23 in 10.0 mi West 17.3 mph 28.8 mph N/A   Unknown
1:55 PM 68.7 °F - 29.3 °F 23% 30.23 in 10.0 mi WNW 11.5 mph 24.2 mph N/A   Unknown
2:10 PM 68.7 °F - 28.9 °F 23% 30.23 in 10.0 mi West 11.5 mph 28.8 mph N/A   Unknown
2:35 PM 69.1 °F - 28.6 °F 22% 30.22 in 10.0 mi West 19.6 mph 31.1 mph N/A   Unknown
2:55 PM 69.8 °F - 30.0 °F 23% 30.22 in 10.0 mi WNW 19.6 mph 28.8 mph N/A   Unknown
3:15 PM 70.2 °F - 28.9 °F 22% 30.21 in 10.0 mi WNW 21.9 mph 28.8 mph N/A   Unknown
3:35 PM 70.5 °F - 29.3 °F 22% 30.21 in 10.0 mi West 13.8 mph 26.5 mph N/A   Unknown
3:50 PM 70.7 °F - 27.0 °F 20% 30.22 in 10.0 mi West 16.1 mph 25.3 mph N/A   Unknown
4:15 PM 70.5 °F - 27.0 °F 20% 30.21 in 10.0 mi West 16.1 mph 28.8 mph N/A   Unknown
4:35 PM 71.4 °F - 23.7 °F 17% 30.21 in 10.0 mi WNW 26.5 mph 31.1 mph N/A   Unknown
4:55 PM 70.7 °F - 23.0 °F 17% 30.22 in 10.0 mi WNW 16.1 mph 32.2 mph N/A   Unknown
5:15 PM 70.7 °F - 23.7 °F 17% 30.22 in 10.0 mi WNW 17.3 mph 31.1 mph N/A   Unknown
5:35 PM 70.9 °F - 20.7 °F 15% 30.22 in 10.0 mi WSW 18.4 mph 27.6 mph N/A   Unknown
5:55 PM 70.0 °F - 23.7 °F 18% 30.22 in 10.0 mi WNW 19.6 mph 31.1 mph N/A   Unknown
6:15 PM 69.8 °F - 24.1 °F 18% 30.22 in 10.0 mi West 11.5 mph 21.9 mph N/A   Unknown
6:35 PM 69.3 °F - 23.2 °F 18% 30.22 in 10.0 mi WNW 15.0 mph 20.7 mph N/A   Unknown
6:55 PM 68.4 °F - 21.6 °F 17% 30.23 in 10.0 mi West 17.3 mph 20.7 mph N/A   Unknown
7:15 PM 67.6 °F - 21.4 °F 17% 30.23 in 10.0 mi West 15.0 mph 24.2 mph N/A   Unknown
7:35 PM 66.6 °F - 21.2 °F 18% 30.23 in 10.0 mi West 10.4 mph 21.9 mph N/A   Unknown
7:55 PM 65.1 °F - 22.5 °F 20% 30.24 in 10.0 mi WSW 8.1 mph 18.4 mph N/A   Unknown
8:15 PM 63.7 °F - 22.1 °F 20% 30.24 in 10.0 mi SW 3.5 mph - N/A   Unknown
8:35 PM 62.1 °F - 22.3 °F 22% 30.25 in 10.0 mi WSW 4.6 mph - N/A   Unknown
8:55 PM 55.2 °F - 28.8 °F 36% 30.26 in 10.0 mi WSW 3.5 mph - N/A   Unknown
9:15 PM 52.0 °F - 28.9 °F 41% 30.27 in 10.0 mi SSW 4.6 mph - N/A   Unknown
9:35 PM 48.6 °F - 29.7 °F 48% 30.28 in 10.0 mi Calm Calm - N/A   Unknown
9:55 PM 47.3 °F - 29.8 °F 51% 30.29 in 10.0 mi SSW 4.6 mph - N/A   Unknown
10:15 PM 44.4 °F 42.0 °F 32.0 °F 62% 30.29 in 10.0 mi SW 4.6 mph - N/A   Unknown
10:35 PM 45.0 °F - 30.2 °F 56% 30.30 in 10.0 mi Calm Calm - N/A   Unknown
10:55 PM 42.3 °F - 30.9 °F 64% 30.30 in 10.0 mi Calm Calm - N/A   Unknown
11:15 PM 41.9 °F - 32.9 °F 70% 30.31 in 10.0 mi Calm Calm - N/A   Unknown
11:35 PM 41.5 °F - 30.9 °F 66% 30.30 in 10.0 mi Calm Calm - N/A   Unknown
11:55 PM 38.3 °F - 30.4 °F 73% 30.31 in 10.0 mi Calm Calm - N/A   Unknown